"2010-07-19 00:00:00",12035,1.264,5.135,20.92,0.172,23.54,110.7547,26.83,27.79,24.57,0,111.6,13.07,27.68,327.1
"2010-07-19 00:00:30",12036,1.834,15.78,21.6,0.318,23.65,110.7786,26.9,27.77,24.54,0,111.6,13.07,27.74,337.8
"2010-07-19 00:01:00",12037,2.181,37.82,17.07,0.631,23.57,110.7795,26.9,27.78,23.83,0,111.6,13.07,27.74,359.8
"2010-07-19 00:01:30",12038,1.662,353.4,11.55,0.765,23.76,110.7758,26.89,27.75,24.23,0,111.6,13.07,27.73,315.4
"2010-07-19 00:02:00",12039,1.94,16.51,8.26,0.631,23.65,110.7777,26.89,27.75,24.19,0,111.6,13.07,27.74,338.5
"2010-07-19 00:02:30",12040,1.755,15.61,15.57,0.844,23.65,110.7814,26.9,27.76,24.24,0,111.6,13.07,27.75,337.6
"2010-07-19 00:03:00",12041,1.783,17.78,8.79,0.82,23.64,110.7837,26.91,27.77,24.04,0,111.6,13.07,27.75,339.8
"2010-07-19 00:03:30",12042,1.483,358.6,12.96,0.703,23.7,110.778,26.89,27.76,24.62,0,111.6,13.07,27.74,320.6
"2010-07-19 00:04:00",12043,3.337,343.2,7.756,0.506,23.07,110.7491,26.82,27.72,25.83,0,111.6,13.07,27.67,305.2
"2010-07-19 00:04:30",12044,3.307,340.1,5.972,0.389,23.04,110.6979,26.69,27.64,26.31,0,111.6,13.07,27.53,302.1
"2010-07-19 00:05:00",12045,3.199,345.3,6.106,0.436,23.17,110.6465,26.56,27.56,26.46,0,111.6,13.07,27.40,307.3
"2010-07-19 00:05:30",12046,2.932,354.6,6.083,0.586,23.41,110.6163,26.48,27.47,26.61,0,111.6,13.07,27.32,316.6
"2010-07-19 00:06:00",12047,3.814,349.6,3.512,0.45,23.13,110.5945,26.42,27.41,27.18,0,111.5,13.07,27.27,311.6
"2010-07-19 00:06:30",12048,2.891,355.4,3.241,0.301,23.08,110.5637,26.34,27.36,27.46,0,111.5,13.07,27.19,317.4
"2010-07-19 00:07:00",12049,2.311,350,8.39,0.351,23.13,110.5334,26.27,27.28,27.59,0,111.5,13.06,27.11,312.0
"2010-07-19 00:07:30",12050,1.999,339.7,12.62,0.286,23.17,110.5261,26.25,27.25,27.62,0,111.5,13.07,27.09,301.7
"2010-07-19 00:08:00",12051,1.768,334.1,3.82,0.13,23.04,110.5003,26.18,27.2,27.98,0,111.5,13.06,27.02,296.1
"2010-07-19 00:08:30",12052,1.537,350.6,7.875,0.294,23.31,110.4942,26.16,27.16,27.94,0,111.5,13.06,27.01,312.6
"2010-07-19 00:09:00",12053,1.612,9.48,10.79,0.158,23.1,110.4945,26.17,27.13,27.9,0,111.5,13.06,27.01,331.5
"2010-07-19 00:09:30",12054,1.817,11.22,3.033,0.132,22.99,110.4978,26.17,27.13,27.81,0,111.5,13.06,27.02,333.2
"2010-07-19 00:10:00",12055,1.844,14.47,8.02,0.343,23.01,110.4985,26.18,27.14,27.41,0,111.5,13.06,27.02,336.5
"2010-07-19 00:10:30",12056,2.476,23.46,6.138,0.258,23,110.5201,26.23,27.15,27.01,0,111.5,13.07,27.07,345.5
"2010-07-19 00:11:00",12057,2.571,26.16,5.733,0.205,22.96,110.547,26.3,27.17,26.61,0,111.5,13.07,27.14,348.2
"2010-07-19 00:11:30",12058,1.799,47.65,10.91,0.555,22.92,110.5851,26.4,27.22,25.95,0,111.5,13.07,27.24,9.7
"2010-07-19 00:12:00",12059,2.35,69.23,6.657,0.328,22.83,110.6115,26.47,27.24,25.41,0,111.5,13.07,27.31,31.2
"2010-07-19 00:12:30",12060,1.472,66.95,23.85,0.327,22.77,110.6227,26.49,27.29,25.51,0,111.5,13.07,27.34,28.9
"2010-07-19 00:13:00",12061,0.66,67.05,12.89,0.196,22.66,110.6245,26.5,27.32,26.25,0,111.5,13.07,27.34,29.1
"2010-07-19 00:13:30",12062,0.476,89.1,31.9,0.227,22.66,110.629,26.51,27.32,25.3,0,111.5,13.07,27.36,51.1
"2010-07-19 00:14:00",12063,1.065,100.8,11.41,0.379,22.63,110.651,26.57,27.35,24.78,0,111.5,13.07,27.41,62.8
"2010-07-19 00:14:30",12064,1.538,90.4,6.479,0.152,22.73,110.6712,26.62,27.38,24.39,0,111.5,13.07,27.46,52.4
"2010-07-19 00:15:00",12065,1.316,83.6,5.036,0.109,22.73,110.6875,26.66,27.4,24.3,0,111.5,13.08,27.51,45.6
"2010-07-19 00:15:30",12066,1.117,77.95,4.509,0.115,22.67,110.6917,26.67,27.45,24.24,0,111.5,13.08,27.52,39.9
"2010-07-19 00:16:00",12067,1.102,65.99,7.183,0.212,22.61,110.695,26.68,27.46,24.66,0,111.5,13.07,27.53,28.0
"2010-07-19 00:16:30",12068,1.041,48.6,10.99,0.164,22.48,110.6961,26.68,27.48,25.14,0,111.5,13.07,27.53,10.6
"2010-07-19 00:17:00",12069,0.464,358.8,14.62,0.293,22.88,110.7234,26.75,27.51,25.34,0,111.4,13.07,27.60,320.8
"2010-07-19 00:17:30",12070,0.714,5.896,14.55,0.234,22.5,110.7558,26.84,27.54,25.72,0,111.5,13.07,27.68,327.9
"2010-07-19 00:18:00",12071,1.152,7.715,21.53,0.408,22.55,110.753,26.83,27.58,25.77,0,111.4,13.07,27.68,329.7
"2010-07-19 00:18:30",12072,1.128,17.91,12.43,0.113,22.39,110.7586,26.84,27.62,25.35,0,111.4,13.07,27.69,339.9
"2010-07-19 00:19:00",12073,1.302,3.961,7.518,0.136,22.42,110.759,26.85,27.64,25.48,0,111.4,13.07,27.69,326.0
"2010-07-19 00:19:30",12074,1.506,4.557,8.18,0.278,22.41,110.7542,26.83,27.63,25.14,0,111.4,13.07,27.68,326.6
"2010-07-19 00:20:00",12075,1.505,3.814,3.968,0.153,22.45,110.7746,26.89,27.66,25.64,0,111.5,13.07,27.73,325.8
"2010-07-19 00:20:30",12076,0.823,3.372,7.617,0.269,22.61,110.7855,26.91,27.69,25.69,0,111.5,13.07,27.76,325.4
"2010-07-19 00:21:00",12077,1.102,13.31,11.5,0.294,22.53,110.8097,26.98,27.72,25.77,0,111.4,13.07,27.82,335.3
"2010-07-19 00:21:30",12078,0.86,357.9,8.24,0.282,22.5,110.8085,26.97,27.76,26.31,0,111.5,13.07,27.82,319.9
"2010-07-19 00:22:00",12079,0.65,337.7,9.51,0.123,22.38,110.7791,26.9,27.76,25.85,0,111.5,13.07,27.74,299.7
"2010-07-19 00:22:30",12080,0.979,329.7,5.692,0.223,22.26,110.7318,26.78,27.72,26.1,0,111.5,13.07,27.62,291.7
"2010-07-19 00:23:00",12081,1.307,321.9,7.055,0.162,22.27,110.6975,26.69,27.67,26.22,0,111.5,13.07,27.53,283.9
"2010-07-19 00:23:30",12082,1.294,336.5,12.17,0.166,22.39,110.6705,26.62,27.63,26.29,0,111.5,13.07,27.46,298.5
"2010-07-19 00:24:00",12083,1.343,329.6,6.873,0.142,22.36,110.6556,26.58,27.58,26.91,0,111.5,13.07,27.42,291.6
"2010-07-19 00:24:30",12084,1.311,345.6,6.679,0.243,22.6,110.6408,26.54,27.54,27.49,0,111.5,13.07,27.39,307.6
"2010-07-19 00:25:00",12085,1.277,340.6,7.072,0.198,22.51,110.6287,26.51,27.51,27.04,0,111.5,13.07,27.35,302.6
"2010-07-19 00:25:30",12086,1.031,3.161,15.59,0.313,22.7,110.6385,26.54,27.48,25.81,0,111.5,13.06,27.38,325.2
"2010-07-19 00:26:00",12087,0.436,3.655,17.07,0.205,23,110.6912,26.67,27.51,25.75,0,111.5,13.06,27.52,325.7
"2010-07-19 00:26:30",12088,0.608,10.95,15.62,0.19,22.79,110.7467,26.81,27.59,25.26,0,111.5,13.06,27.66,333.0
"2010-07-19 00:27:00",12089,0.489,6.539,17.17,0.212,22.99,110.7972,26.94,27.65,26.23,0,111.5,13.06,27.79,328.5
"2010-07-19 00:27:30",12090,1.252,336.9,8.09,0.245,22.48,110.8103,26.98,27.71,24.97,0,111.5,13.06,27.82,298.9
"2010-07-19 00:28:00",12091,1.146,334.3,5.332,0.153,22.54,110.7846,26.91,27.72,25.45,0,111.5,13.06,27.76,296.3
"2010-07-19 00:28:30",12092,0.825,340.5,13.99,0.249,22.76,110.7635,26.86,27.71,26.3,0,111.5,13.06,27.70,302.5
"2010-07-19 00:29:00",12093,0.595,5.802,37.31,0.299,23,110.7683,26.87,27.71,26.66,0,111.5,13.06,27.71,327.8
"2010-07-19 00:29:30",12094,0.262,11.06,70.93,0.244,23.16,110.8112,26.98,27.75,26.77,0,111.5,13.06,27.83,333.1
"2010-07-19 00:30:00",12095,0.219,27.28,31.51,0.232,23.01,110.8467,27.07,27.79,26.6,0,111.5,13.07,27.92,349.3
"2010-07-19 00:30:30",12096,0.401,14.62,65.26,0.248,22.8,110.8632,27.11,27.84,25.48,0,111.5,13.07,27.96,336.6
"2010-07-19 00:31:00",12097,0.834,303.5,20.3,0.302,22.37,110.8457,27.07,27.86,25.31,0,111.5,13.07,27.91,265.5
"2010-07-19 00:31:30",12098,1.262,295.8,8.3,0.194,22.38,110.8069,26.97,27.85,24.85,0,111.5,13.07,27.81,257.8
"2010-07-19 00:32:00",12099,1.605,298.1,4.942,0.196,22.45,110.7756,26.89,27.8,24.65,0,111.5,13.07,27.73,260.1
"2010-07-19 00:32:30",12100,1.789,333.2,15.72,0.332,22.8,110.7598,26.85,27.78,25.93,0,111.5,13.07,27.69,295.2
"2010-07-19 00:33:00",12101,1.197,322,67.16,0.337,23,110.7624,26.85,27.78,26.12,0,111.5,13.06,27.70,284.0
"2010-07-19 00:33:30",12102,1.49,344.9,45.73,0.395,23.04,110.7755,26.89,27.76,26.52,0,111.5,13.06,27.73,306.9
"2010-07-19 00:34:00",12103,1.868,321.9,5.475,0.362,22.82,110.773,26.88,27.76,26.93,0,111.5,13.06,27.73,283.9
"2010-07-19 00:34:30",12104,1.36,333.1,23.05,0.336,23,110.7623,26.85,27.77,26.27,0,111.5,13.06,27.70,295.1
"2010-07-19 00:35:00",12105,0.862,356.9,62.76,0.297,23.24,110.769,26.87,27.75,26.07,0,111.5,13.06,27.72,318.9
"2010-07-19 00:35:30",12106,1.252,339.9,20.13,0.349,23.08,110.7886,26.92,27.76,26.31,0,111.5,13.06,27.77,301.9
"2010-07-19 00:36:00",12107,1.725,323.6,6.969,0.359,22.96,110.7826,26.91,27.77,26.79,0,111.5,13.06,27.75,285.6
"2010-07-19 00:36:30",12108,1.341,344.6,16.26,0.478,23.26,110.7782,26.89,27.76,26.85,0,111.5,13.06,27.74,306.6
"2010-07-19 00:37:00",12109,0.405,14.01,13.06,0.224,23.44,110.798,26.95,27.77,26.81,0,111.5,13.06,27.79,336.0
"2010-07-19 00:37:30",12110,1.36,350.8,6.287,0.406,23.13,110.8181,27,27.79,26.51,0,111.5,13.06,27.84,312.8
"2010-07-19 00:38:00",12111,1.617,348.8,5.436,0.328,23.07,110.8089,26.97,27.81,26.34,0,111.5,13.06,27.82,310.8
"2010-07-19 00:38:30",12112,1.87,343.9,8.43,0.401,22.94,110.803,26.96,27.81,26.33,0,111.5,13.06,27.80,305.9
"2010-07-19 00:39:00",12113,2.658,327.1,7.942,0.217,22.83,110.7777,26.89,27.81,26.28,0,111.6,13.06,27.74,289.1
"2010-07-19 00:39:30",12114,2.059,307.6,6.399,0.222,22.75,110.7542,26.83,27.76,26.1,0,111.6,13.06,27.68,269.6
"2010-07-19 00:40:00",12115,2.42,315.9,3.932,0.145,22.77,110.7347,26.78,27.73,26.29,0,111.6,13.06,27.63,277.9
"2010-07-19 00:40:30",12116,2.352,302,6.905,0.25,22.79,110.7268,26.76,27.69,26.24,0,111.6,13.06,27.61,264.0
"2010-07-19 00:41:00",12117,2.388,314.6,8.8,0.265,22.84,110.704,26.7,27.67,26.49,0,111.6,13.06,27.55,276.6
"2010-07-19 00:41:30",12118,2.3,314.4,8.15,0.401,22.89,110.7029,26.7,27.64,26.45,0,111.6,13.05,27.55,276.4
"2010-07-19 00:42:00",12119,2.207,302,5.941,0.188,22.93,110.7012,26.7,27.62,26.53,0,111.6,13.05,27.54,264.0
"2010-07-19 00:42:30",12120,2.156,302.9,9.98,0.177,22.97,110.702,26.7,27.62,26.76,0,111.6,13.05,27.54,264.9
"2010-07-19 00:43:00",12121,1.649,323.9,8.54,0.409,22.89,110.7014,26.7,27.63,26.54,0,111.6,13.05,27.54,285.9
"2010-07-19 00:43:30",12122,1.743,309.4,5.903,0.255,22.92,110.6949,26.68,27.62,26.59,0,111.6,13.05,27.53,271.4
"2010-07-19 00:44:00",12123,1.907,319.6,9.62,0.173,22.94,110.7003,26.69,27.61,26.58,0,111.6,13.05,27.54,281.6
"2010-07-19 00:44:30",12124,1.392,333.9,4.431,0.207,22.86,110.6938,26.68,27.61,26.39,0,111.6,13.05,27.52,295.9
"2010-07-19 00:45:00",12125,1.436,331.4,6.69,0.412,22.8,110.6927,26.67,27.59,26.32,0,111.6,13.05,27.52,293.4
"2010-07-19 00:45:30",12126,1.831,332.9,8.71,0.174,22.77,110.6862,26.66,27.57,26.49,0,111.6,13.05,27.50,294.9
"2010-07-19 00:46:00",12127,2.052,320.4,5.837,0.199,22.64,110.6632,26.6,27.55,28.4,0,111.6,13.05,27.44,282.4
"2010-07-19 00:46:30",12128,2.44,315.8,4.094,0.236,22.65,110.6366,26.53,27.5,28.63,0,111.6,13.05,27.38,277.8
"2010-07-19 00:47:00",12129,2.345,316,5.873,0.169,22.69,110.6249,26.5,27.45,28.55,0,111.6,13.06,27.34,278.0
"2010-07-19 00:47:30",12130,2.264,324,5.491,0.25,22.71,110.6111,26.47,27.42,28.5,0,111.6,13.06,27.31,286.0
"2010-07-19 00:48:00",12131,1.878,307.8,5.225,0.161,22.67,110.596,26.43,27.39,28.57,0,111.6,13.06,27.27,269.8
"2010-07-19 00:48:30",12132,1.759,319.8,3.796,0.165,22.74,110.5915,26.41,27.36,28.38,0,111.6,13.06,27.26,281.8
"2010-07-19 00:49:00",12133,2.118,308.3,3.762,0.224,22.72,110.5904,26.41,27.35,28.21,0,111.6,13.06,27.26,270.3
"2010-07-19 00:49:30",12134,1.835,313.7,4.786,0.32,22.85,110.5853,26.4,27.32,27.83,0,111.6,13.06,27.24,275.7
"2010-07-19 00:50:00",12135,1.024,316.2,14.87,0.147,22.83,110.5918,26.42,27.33,27.66,0,111.6,13.06,27.26,278.2
"2010-07-19 00:50:30",12136,1.157,355.4,8.45,0.178,22.89,110.6072,26.46,27.34,26.95,0,111.6,13.06,27.30,317.4
"2010-07-19 00:51:00",12137,0.738,352.8,12.29,0.165,22.89,110.6305,26.51,27.35,26.72,0,111.6,13.06,27.36,314.8
"2010-07-19 00:51:30",12138,0.578,324,6.462,0.088,22.86,110.6504,26.57,27.37,26.69,0,111.6,13.06,27.41,286.0
"2010-07-19 00:52:00",12139,0.536,330.6,5.567,0.194,22.78,110.6588,26.59,27.4,26.77,0,111.6,13.06,27.43,292.6
"2010-07-19 00:52:30",12140,1.242,337.3,6.253,0.143,22.75,110.659,26.59,27.42,27.17,0,111.6,13.06,27.43,299.3
"2010-07-19 00:53:00",12141,1.096,345.6,6.004,0.145,22.94,110.659,26.59,27.41,26.89,0,111.6,13.06,27.43,307.6
"2010-07-19 00:53:30",12142,1.074,345.4,6.858,0.143,22.78,110.659,26.59,27.42,26.93,0,111.6,13.06,27.43,307.4
"2010-07-19 00:54:00",12143,1.381,357.9,7.655,0.192,22.85,110.6663,26.61,27.44,27.11,0,111.6,13.06,27.45,319.9
"2010-07-19 00:54:30",12144,1.492,2.334,11.43,0.539,23,110.7008,26.7,27.47,27.08,0,111.6,13.06,27.54,324.3
"2010-07-19 00:55:00",12145,1.358,13.8,8.43,0.446,22.98,110.7397,26.8,27.54,26.6,0,111.6,13.06,27.64,335.8
"2010-07-19 00:55:30",12146,1.904,14.94,5.586,0.478,22.82,110.7818,26.9,27.61,26.26,0,111.6,13.06,27.75,336.9
"2010-07-19 00:56:00",12147,2.159,13.81,4.202,0.149,22.77,110.7963,26.94,27.66,26.19,0,111.6,13.06,27.79,335.8
"2010-07-19 00:56:30",12148,2.178,13.49,6.556,0.133,22.86,110.8131,26.98,27.7,25.51,0,111.6,13.06,27.83,335.5
"2010-07-19 00:57:00",12149,2.18,7.157,3.459,0.156,22.92,110.8302,27.03,27.74,24.64,0,111.6,13.06,27.87,329.2
"2010-07-19 00:57:30",12150,1.603,13.74,2.932,0.199,22.89,110.8339,27.04,27.79,25.59,0,111.6,13.06,27.88,335.7
"2010-07-19 00:58:00",12151,1.384,14.38,3.795,0.124,22.85,110.8272,27.02,27.8,25.47,0,111.6,13.06,27.87,336.4
"2010-07-19 00:58:30",12152,1.3,19.96,4.974,0.209,22.95,110.8269,27.02,27.82,24.82,0,111.6,13.06,27.87,342.0
"2010-07-19 00:59:00",12153,1.065,37.98,9.78,0.185,22.98,110.8272,27.02,27.82,24.96,0,111.6,13.06,27.87,360.0
"2010-07-19 00:59:30",12154,0.791,41.49,4.402,0.12,22.95,110.8258,27.02,27.84,24.68,0,111.6,13.06,27.86,3.5
"2010-07-19 01:00:00",12155,0.521,28.91,20.1,0.161,23.03,110.8171,26.99,27.84,24.62,0,111.6,13.06,27.84,350.9
"2010-07-19 01:00:30",12156,0.421,37.78,27.68,0.301,23,110.8135,26.99,27.83,25.01,0,111.6,13.06,27.83,359.8
"2010-07-19 01:01:00",12157,0.797,77.07,8.64,0.134,22.97,110.7969,26.94,27.84,24.31,0,111.6,13.06,27.79,39.1
"2010-07-19 01:01:30",12158,1.071,71.28,6.951,0.166,22.93,110.7924,26.93,27.8,23.72,0,111.6,13.06,27.78,33.3
"2010-07-19 01:02:00",12159,1.264,59.07,5.994,0.106,22.86,110.7708,26.88,27.8,25.04,0,111.6,13.06,27.72,21.1
"2010-07-19 01:02:30",12160,1.193,49.58,5.332,0.168,22.78,110.7582,26.84,27.77,25.71,0,111.6,13.06,27.69,11.6
"2010-07-19 01:03:00",12161,1.708,41.94,4.547,0.332,22.81,110.7523,26.83,27.76,25.76,0,111.6,13.06,27.67,3.9
"2010-07-19 01:03:30",12162,1.543,34.11,4.483,0.094,22.84,110.7369,26.79,27.72,26.19,0,111.6,13.06,27.63,356.1
"2010-07-19 01:04:00",12163,1.94,41.38,2.695,0.166,22.83,110.7252,26.76,27.68,26.4,0,111.6,13.06,27.60,3.4
"2010-07-19 01:04:30",12164,2.246,40.19,3.463,0.152,22.84,110.7112,26.72,27.67,26.61,0,111.6,13.06,27.57,2.2
"2010-07-19 01:05:00",12165,1.993,44.44,3.63,0.28,22.81,110.698,26.69,27.64,27.24,0,111.6,13.06,27.53,6.4
"2010-07-19 01:05:30",12166,1.868,45.02,1.972,0.112,22.89,110.6901,26.67,27.61,26.79,0,111.6,13.06,27.51,7.0
"2010-07-19 01:06:00",12167,1.903,46.93,3.03,0.196,23.01,110.689,26.67,27.59,25.72,0,111.6,13.06,27.51,8.9
"2010-07-19 01:06:30",12168,1.402,43.06,4.421,0.16,23.15,110.696,26.68,27.58,23.88,0,111.6,13.06,27.53,5.1
"2010-07-19 01:07:00",12169,0.993,32.24,2.89,0.117,23.17,110.7364,26.79,27.62,23.06,0,111.6,13.06,27.63,354.2
"2010-07-19 01:07:30",12170,0.726,36.78,4.459,0.107,23.06,110.7826,26.91,27.67,22.92,0,111.6,13.06,27.75,358.8
"2010-07-19 01:08:00",12171,0.484,38.02,12.3,0.114,23.08,110.818,27,27.73,22.96,0,111.6,13.06,27.84,0.0
"2010-07-19 01:08:30",12172,0.048,354.9,31.98,0.151,23.34,110.8409,27.06,27.79,22.53,0,111.6,13.06,27.90,316.9
"2010-07-19 01:09:00",12173,0.031,7.449,28.24,0.098,23.36,110.8762,27.15,27.84,22.34,0,111.6,13.06,27.99,329.4
"2010-07-19 01:09:30",12174,-0.028,6.24,35.73,0.095,23.21,110.8944,27.19,27.89,22.36,0,111.6,13.06,28.04,328.2
"2010-07-19 01:10:00",12175,-0.013,345.3,24.81,0.092,23.29,110.9011,27.21,27.93,22.54,0,111.6,13.06,28.06,307.3
"2010-07-19 01:10:30",12176,-0.032,338.5,35.16,0.119,23.16,110.8972,27.2,27.97,22.51,0,111.6,13.06,28.05,300.5
"2010-07-19 01:11:00",12177,0.112,312.9,9.79,0.07,22.72,110.8838,27.17,27.98,22.39,0,111.6,13.06,28.01,274.9
"2010-07-19 01:11:30",12178,0.142,281.5,16.43,0.078,22.81,110.8614,27.11,27.96,22.23,0,111.6,13.06,27.96,243.5
"2010-07-19 01:12:00",12179,0.108,268,11.55,0.125,22.82,110.8493,27.08,27.95,22.42,0,111.6,13.06,27.92,230.0
"2010-07-19 01:12:30",12180,-0.008,232,16.41,0.037,22.76,110.833,27.04,27.94,22.51,0,111.6,13.06,27.88,194.0
"2010-07-19 01:13:00",12181,-0.008,259.2,17.71,0.049,22.79,110.8274,27.02,27.91,22.65,0,111.6,13.06,27.87,221.2
"2010-07-19 01:13:30",12182,-0.103,294.8,16.08,0.034,22.87,110.823,27.01,27.88,22.86,0,111.6,13.06,27.86,256.8
"2010-07-19 01:14:00",12183,-0.083,320.4,43.38,0.054,23.23,110.8169,26.99,27.87,23.34,0,111.6,13.06,27.84,282.4
"2010-07-19 01:14:30",12184,0,8.76,23.97,0.072,23,110.8379,27.05,27.89,23.32,0,111.6,13.05,27.89,330.8
"2010-07-19 01:15:00",12185,0.008,42.27,3.139,0.061,22.57,110.8568,27.1,27.92,23.47,0,111.6,13.06,27.94,4.3
"2010-07-19 01:15:30",12186,0.009,45.52,5.075,0.046,22.57,110.8538,27.09,27.93,23.21,0,111.6,13.05,27.94,7.5
"2010-07-19 01:16:00",12187,0.028,51.65,18.44,0.085,22.6,110.8778,27.15,27.95,22.98,0,111.6,13.05,28.00,13.7
"2010-07-19 01:16:30",12188,0.047,86.8,63.92,0.087,22.59,110.8851,27.17,27.97,23,0,111.6,13.05,28.02,48.8
"2010-07-19 01:17:00",12189,0.187,140.4,12.68,0.104,22.61,110.8823,27.16,27.99,22.7,0,111.6,13.05,28.01,102.4
"2010-07-19 01:17:30",12190,0.523,145.8,7.567,0.104,22.63,110.8728,27.14,27.98,22.44,0,111.6,13.05,27.98,107.8
"2010-07-19 01:18:00",12191,0.362,153.6,13.77,0.228,22.6,110.863,27.11,27.98,22.81,0,111.6,13.05,27.96,115.6
"2010-07-19 01:18:30",12192,0.722,160.4,6.06,0.091,22.61,110.8518,27.08,27.97,22.76,0,111.6,13.05,27.93,122.4
"2010-07-19 01:19:00",12193,0.681,161.4,6.269,0.064,22.63,110.8487,27.08,27.96,22.67,0,111.6,13.05,27.92,123.4
"2010-07-19 01:19:30",12194,0.508,150.8,5.725,0.08,22.7,110.8397,27.05,27.93,22.99,0,111.6,13.04,27.90,112.8
"2010-07-19 01:20:00",12195,0.688,136.6,3.546,0.085,22.75,110.8349,27.04,27.92,22.59,0,111.6,13.05,27.89,98.6
"2010-07-19 01:20:30",12196,0.611,139.9,3.391,0.062,22.78,110.8411,27.06,27.92,22.77,0,111.6,13.05,27.90,101.9
"2010-07-19 01:21:00",12197,0.594,135.8,2.453,0.047,22.8,110.8452,27.07,27.92,22.77,0,111.6,13.05,27.91,97.8
"2010-07-19 01:21:30",12198,0.457,123.3,11.56,0.12,22.81,110.8464,27.07,27.92,22.17,0,111.6,13.05,27.92,85.3
"2010-07-19 01:22:00",12199,0.135,109.3,6.77,0.051,22.92,110.8496,27.08,27.91,20.93,0,111.6,13.05,27.92,71.3
"2010-07-19 01:22:30",12200,0.12,116.5,6.691,0.059,22.91,110.8589,27.1,27.94,20.74,0,111.6,13.05,27.95,78.5
"2010-07-19 01:23:00",12201,-0.036,85.9,23.34,0.054,22.96,110.8772,27.15,27.96,20.65,0,111.6,13.05,28.00,47.9
"2010-07-19 01:23:30",12202,0.048,47.29,10.79,0.037,22.91,110.8963,27.2,27.98,20.57,0,111.6,13.05,28.05,9.3
"2010-07-19 01:24:00",12203,0.035,56.26,8.78,0.042,22.98,110.9146,27.25,28.01,20.57,0,111.6,13.05,28.09,18.3
"2010-07-19 01:24:30",12204,0.078,33.05,16.37,0.066,22.98,110.9393,27.31,28.05,20.55,0,111.6,13.05,28.16,355.0
"2010-07-19 01:25:00",12205,0.089,21.75,16.06,0.075,23.27,110.9915,27.44,28.12,20.57,0,111.6,13.05,28.29,343.8
"2010-07-19 01:25:30",12206,0.094,42.99,6.006,0.036,22.96,111.0192,27.51,28.17,20.59,0,111.6,13.05,28.36,5.0
"2010-07-19 01:26:00",12207,0.074,37.32,8.31,0.053,22.99,111.0111,27.49,28.23,20.49,0,111.6,13.05,28.34,359.3
"2010-07-19 01:26:30",12208,0.205,46.7,6.748,0.067,22.86,110.9821,27.42,28.24,20.32,0,111.6,13.05,28.27,8.7
"2010-07-19 01:27:00",12209,0.299,50.71,4.364,0.057,22.86,110.9624,27.37,28.22,20.42,0,111.6,13.05,28.22,12.7
"2010-07-19 01:27:30",12210,0.376,53.23,3.286,0.063,22.88,110.9362,27.3,28.21,20.56,0,111.6,13.05,28.15,15.2
"2010-07-19 01:28:00",12211,0.341,73.06,10.69,0.054,22.97,110.9159,27.25,28.17,20.41,0,111.6,13.05,28.10,35.1
"2010-07-19 01:28:30",12212,0.433,60.3,2.785,0.046,22.9,110.8995,27.21,28.15,20.38,0,111.6,13.05,28.05,22.3
"2010-07-19 01:29:00",12213,0.558,47.42,6.928,0.072,22.97,110.8906,27.18,28.12,21.05,0,111.6,13.05,28.03,9.4
"2010-07-19 01:29:30",12214,0.469,52.28,9.21,0.032,22.97,110.8966,27.2,28.12,21.46,0,111.6,13.05,28.05,14.3
"2010-07-19 01:30:00",12215,0.502,74.68,5.368,0.057,23.06,110.887,27.17,28.1,21.44,0,111.6,13.05,28.02,36.7
"2010-07-19 01:30:30",12216,0.62,78.36,4.031,0.136,23.1,110.8629,27.11,28.09,21.41,0,111.6,13.05,27.96,40.4
"2010-07-19 01:31:00",12217,0.97,77.69,3.788,0.112,22.96,110.8539,27.09,28.05,22.01,0,111.6,13.05,27.94,39.7
"2010-07-19 01:31:30",12218,1.019,86.8,6.72,0.133,23.07,110.8321,27.03,28.02,22.1,0,111.6,13.05,27.88,48.8
"2010-07-19 01:32:00",12219,0.932,97.4,4.563,0.077,23.02,110.8248,27.01,27.99,21.68,0,111.6,13.05,27.86,59.4
"2010-07-19 01:32:30",12220,0.838,106.3,2.913,0.078,22.99,110.8083,26.97,27.96,21.74,0,111.6,13.05,27.82,68.3
"2010-07-19 01:33:00",12221,0.755,111.8,4.432,0.066,23.08,110.8055,26.96,27.94,21.74,0,111.6,13.05,27.81,73.8
"2010-07-19 01:33:30",12222,0.902,106.6,6.128,0.042,23.08,110.8073,26.97,27.92,22.03,0,111.6,13.05,27.82,68.6
"2010-07-19 01:34:00",12223,0.804,112,5.479,0.081,23.08,110.8014,26.95,27.9,22.04,0,111.6,13.04,27.80,74.0
"2010-07-19 01:34:30",12224,0.81,116.4,5.621,0.115,23.08,110.8033,26.96,27.9,22.06,0,111.6,13.04,27.81,78.4
"2010-07-19 01:35:00",12225,0.917,121.1,2.322,0.045,23.1,110.8052,26.96,27.88,22.12,0,111.6,13.04,27.81,83.1
"2010-07-19 01:35:30",12226,0.945,116.8,2.127,0.034,23.13,110.8061,26.97,27.87,22.21,0,111.6,13.04,27.81,78.8
"2010-07-19 01:36:00",12227,0.783,119.8,2.508,0.033,23.16,110.8036,26.96,27.86,22.19,0,111.6,13.04,27.81,81.8
"2010-07-19 01:36:30",12228,0.692,121.1,3.434,0.038,23.15,110.7984,26.95,27.83,22.33,0,111.6,13.04,27.79,83.1
"2010-07-19 01:37:00",12229,0.759,126.8,1.272,0.054,23.18,110.7905,26.93,27.83,22.28,0,111.6,13.04,27.77,88.8
"2010-07-19 01:37:30",12230,0.826,127.7,1.284,0.044,23.22,110.7892,26.92,27.82,21.85,0,111.6,13.04,27.77,89.7
"2010-07-19 01:38:00",12231,0.809,131.3,2.625,0.059,23.17,110.795,26.94,27.82,21.88,0,111.6,13.05,27.78,93.3
"2010-07-19 01:38:30",12232,0.863,133.5,1.662,0.046,23.08,110.8016,26.95,27.83,21.66,0,111.6,13.05,27.80,95.5
"2010-07-19 01:39:00",12233,0.778,130.3,2.459,0.047,23.22,110.8061,26.97,27.82,21.57,0,111.6,13.05,27.81,92.3
"2010-07-19 01:39:30",12234,0.842,131.5,1.486,0.056,23.17,110.808,26.97,27.83,21.75,0,111.6,13.05,27.82,93.5
"2010-07-19 01:40:00",12235,0.984,131.9,1.951,0.056,23.08,110.8089,26.97,27.82,21.71,0,111.6,13.05,27.82,93.9
"2010-07-19 01:40:30",12236,0.947,129.6,1.736,0.066,23.14,110.8097,26.98,27.82,21.73,0,111.6,13.05,27.82,91.6
"2010-07-19 01:41:00",12237,0.878,126.2,3.618,0.081,23.26,110.8117,26.98,27.81,21.84,0,111.6,13.05,27.83,88.2
"2010-07-19 01:41:30",12238,0.819,122.5,1.275,0.032,23.3,110.8108,26.98,27.84,21.92,0,111.6,13.05,27.82,84.5
"2010-07-19 01:42:00",12239,0.858,122.3,1.697,0.051,23.27,110.8103,26.98,27.82,21.96,0,111.6,13.05,27.82,84.3
"2010-07-19 01:42:30",12240,0.96,122.1,2.259,0.053,23.25,110.81,26.98,27.82,21.91,0,111.5,13.05,27.82,84.1
"2010-07-19 01:43:00",12241,0.948,121.6,2.283,0.045,23.26,110.8097,26.98,27.83,21.89,0,111.5,13.05,27.82,83.6
"2010-07-19 01:43:30",12242,0.935,122.8,1.156,0.033,23.24,110.8075,26.97,27.83,21.83,0,111.5,13.05,27.82,84.8
"2010-07-19 01:44:00",12243,1.078,126.2,1.427,0.073,23.12,110.8052,26.96,27.82,21.81,0,111.5,13.05,27.81,88.2
"2010-07-19 01:44:30",12244,1.428,124.6,2.772,0.072,23.19,110.796,26.94,27.83,22.14,0,111.5,13.05,27.79,86.6
"2010-07-19 01:45:00",12245,1.502,127.3,3.846,0.044,23.24,110.7942,26.94,27.81,22.15,0,111.5,13.05,27.78,89.3
"2010-07-19 01:45:30",12246,1.396,131.2,3.085,0.082,23.27,110.7956,26.94,27.82,21.89,0,111.5,13.05,27.79,93.2
"2010-07-19 01:46:00",12247,1.408,125.2,1.005,0.036,23.31,110.7964,26.94,27.82,21.81,0,111.5,13.05,27.79,87.2
"2010-07-19 01:46:30",12248,1.513,128.9,2.34,0.063,23.44,110.7983,26.95,27.81,21.61,0,111.5,13.05,27.79,90.9
"2010-07-19 01:47:00",12249,1.481,128,1.594,0.058,23.47,110.8007,26.95,27.82,21.65,0,111.5,13.05,27.80,90.0
"2010-07-19 01:47:30",12250,1.713,128.6,2.915,0.104,23.4,110.8016,26.95,27.83,22.02,0,111.5,13.05,27.80,90.6
"2010-07-19 01:48:00",12251,1.895,125.6,3.444,0.06,23.35,110.7986,26.95,27.81,22.69,0,111.5,13.05,27.79,87.6
"2010-07-19 01:48:30",12252,2.089,127.1,2.737,0.1,23.17,110.7905,26.93,27.82,24.34,0,111.5,13.05,27.77,89.1
"2010-07-19 01:49:00",12253,2.098,127.3,2.228,0.079,23.16,110.7602,26.85,27.78,25.63,0,111.5,13.05,27.69,89.3